Tiempo cada hora Dabachang

Hoy, 4 Agosto, Miércoles

Tiempo Temperatura Precipitaciones Viento Presión Humedad
00:00 +25°C° 0.2 mm 1 mps 701 mmHg 90%
01:00 +24°C° 0 mm 1 mps 701 mmHg 92%
02:00 +24°C° 0.2 mm 1 mps 701 mmHg 92%
03:00 +22°C° 0.2 mm 0 mps 701 mmHg 92%
04:00 +22°C° 0.2 mm 0 mps 701 mmHg 92%
05:00 +23°C° 0 mm 0 mps 701 mmHg 90%
06:00 +24°C° 0 mm 0 mps 701 mmHg 88%
07:00 +25°C° 0 mm 0 mps 702 mmHg 85%
08:00 +26°C° 0 mm 0 mps 702 mmHg 78%
09:00 +28°C° 0 mm 0 mps 702 mmHg 71%
10:00 +32°C° 0 mm 1 mps 702 mmHg 63%
11:00 +33°C° 0 mm 1 mps 701 mmHg 60%
12:00 +34°C° 0 mm 1 mps 700 mmHg 57%
13:00 +35°C° 0 mm 2 mps 700 mmHg 54%
14:00 +35°C° 0.1 mm 2 mps 699 mmHg 57%
15:00 +33°C° 0.1 mm 1 mps 699 mmHg 59%
16:00 +33°C° 0.1 mm 1 mps 699 mmHg 62%
17:00 +31°C° 0 mm 1 mps 699 mmHg 67%
18:00 +30°C° 0 mm 1 mps 699 mmHg 73%
19:00 +28°C° 0 mm 1 mps 699 mmHg 78%
20:00 +27°C° 0 mm 1 mps 699 mmHg 79%
21:00 +27°C° 0 mm 1 mps 699 mmHg 79%
22:00 +26°C° 0 mm 1 mps 700 mmHg 80%
23:00 +26°C° 0 mm 1 mps 699 mmHg 82%

Mañana, 5 Agosto, Jueves

Tiempo Temperatura Precipitaciones Viento Presión Humedad
00:00 +25°C° 0 mm 1 mps 699 mmHg 83%
01:00 +25°C° 0 mm 1 mps 699 mmHg 85%
02:00 +23°C° 0 mm 0 mps 699 mmHg 85%
03:00 +22°C° 0 mm 0 mps 699 mmHg 86%
04:00 +22°C° 0 mm 0 mps 699 mmHg 87%
05:00 +23°C° 0 mm 0 mps 699 mmHg 84%
06:00 +24°C° 0 mm 0 mps 699 mmHg 81%
07:00 +25°C° 0 mm 0 mps 700 mmHg 79%
08:00 +27°C° 0 mm 0 mps 700 mmHg 73%
09:00 +29°C° 0 mm 0 mps 700 mmHg 67%
10:00 +31°C° 0 mm 0 mps 700 mmHg 61%
11:00 +33°C° 0 mm 1 mps 699 mmHg 59%
12:00 +34°C° 0 mm 1 mps 698 mmHg 57%
13:00 +35°C° 0 mm 2 mps 698 mmHg 55%
14:00 +34°C° 0.2 mm 1 mps 698 mmHg 58%
15:00 +33°C° 0.2 mm 1 mps 697 mmHg 61%
16:00 +33°C° 0.2 mm 1 mps 697 mmHg 64%
17:00 +31°C° 0 mm 1 mps 697 mmHg 68%
18:00 +30°C° 0 mm 1 mps 697 mmHg 73%
19:00 +28°C° 0 mm 1 mps 697 mmHg 78%
20:00 +28°C° 0 mm 1 mps 698 mmHg 79%
21:00 +27°C° 0 mm 1 mps 698 mmHg 80%
22:00 +27°C° 0 mm 1 mps 698 mmHg 82%
23:00 +26°C° 0 mm 1 mps 698 mmHg 84%

Pasado mañana, 6 Agosto, Viernes

Tiempo Temperatura Precipitaciones Viento Presión Humedad
00:00 +26°C° 0 mm 1 mps 698 mmHg 85%
01:00 +25°C° 0 mm 1 mps 698 mmHg 87%
02:00 +23°C° 0 mm 0 mps 698 mmHg 88%
03:00 +23°C° 0 mm 0 mps 698 mmHg 89%
04:00 +23°C° 0 mm 0 mps 697 mmHg 91%
05:00 +23°C° 0 mm 0 mps 698 mmHg 88%
06:00 +24°C° 0 mm 0 mps 698 mmHg 85%
07:00 +25°C° 0 mm 0 mps 699 mmHg 82%
08:00 +27°C° 0 mm 0 mps 699 mmHg 75%
09:00 +29°C° 0 mm 0 mps 699 mmHg 68%
10:00 +31°C° 0 mm 0 mps 699 mmHg 61%
11:00 +33°C° 0 mm 1 mps 699 mmHg 59%
12:00 +34°C° 0 mm 1 mps 698 mmHg 57%
13:00 +35°C° 0 mm 1 mps 698 mmHg 55%
14:00 +34°C° 0.3 mm 1 mps 697 mmHg 58%
15:00 +33°C° 0.3 mm 1 mps 697 mmHg 62%
16:00 +33°C° 0.3 mm 1 mps 697 mmHg 66%
17:00 +31°C° 0.1 mm 1 mps 697 mmHg 71%
18:00 +30°C° 0.1 mm 1 mps 697 mmHg 76%
19:00 +28°C° 0.1 mm 1 mps 697 mmHg 80%
20:00 +28°C° 0.1 mm 1 mps 698 mmHg 82%
21:00 +27°C° 0.1 mm 1 mps 698 mmHg 84%
22:00 +27°C° 0.1 mm 1 mps 698 mmHg 85%
23:00 +26°C° 0 mm 1 mps 698 mmHg 86%

7 Agosto, Sábado

Tiempo Temperatura Precipitaciones Viento Presión Humedad
00:00 +26°C° 0 mm 1 mps 698 mmHg 87%
01:00 +25°C° 0 mm 1 mps 698 mmHg 88%
02:00 +25°C° 0 mm 1 mps 698 mmHg 89%
03:00 +23°C° 0 mm 0 mps 698 mmHg 89%
04:00 +22°C° 0 mm 0 mps 698 mmHg 90%
05:00 +23°C° 0 mm 0 mps 698 mmHg 87%
06:00 +24°C° 0 mm 0 mps 699 mmHg 84%
07:00 +25°C° 0 mm 0 mps 699 mmHg 82%
08:00 +27°C° 0 mm 0 mps 700 mmHg 75%
09:00 +29°C° 0 mm 0 mps 700 mmHg 68%
10:00 +30°C° 0 mm 0 mps 700 mmHg 61%
11:00 +33°C° 0 mm 1 mps 699 mmHg 59%
12:00 +34°C° 0 mm 1 mps 699 mmHg 56%
13:00 +35°C° 0 mm 1 mps 698 mmHg 53%
14:00 +34°C° 0.1 mm 1 mps 698 mmHg 57%
15:00 +33°C° 0.1 mm 1 mps 698 mmHg 61%
16:00 +33°C° 0.1 mm 1 mps 698 mmHg 65%
17:00 +31°C° 0.2 mm 1 mps 698 mmHg 71%
18:00 +30°C° 0.2 mm 1 mps 698 mmHg 76%
19:00 +28°C° 0.2 mm 1 mps 698 mmHg 82%
20:00 +28°C° 0 mm 1 mps 698 mmHg 84%
21:00 +27°C° 0 mm 1 mps 699 mmHg 85%
22:00 +27°C° 0 mm 1 mps 699 mmHg 87%
23:00 +26°C° 0.1 mm 1 mps 699 mmHg 88%

8 Agosto, Domingo

Tiempo Temperatura Precipitaciones Viento Presión Humedad
00:00 +26°C° 0.1 mm 1 mps 699 mmHg 89%
01:00 +26°C° 0.1 mm 1 mps 699 mmHg 90%
02:00 +23°C° 0 mm 0 mps 699 mmHg 91%
03:00 +23°C° 0 mm 0 mps 699 mmHg 91%
04:00 +23°C° 0 mm 0 mps 699 mmHg 92%
05:00 +24°C° 0 mm 0 mps 699 mmHg 89%
06:00 +24°C° 0 mm 0 mps 700 mmHg 87%
07:00 +25°C° 0 mm 0 mps 701 mmHg 84%
08:00 +27°C° 0 mm 0 mps 701 mmHg 77%
09:00 +28°C° 0 mm 0 mps 701 mmHg 71%
10:00 +30°C° 0 mm 0 mps 701 mmHg 64%
11:00 +31°C° 0 mm 0 mps 700 mmHg 62%
12:00 +31°C° 0 mm 0 mps 700 mmHg 60%
13:00 +32°C° 0 mm 0 mps 699 mmHg 58%
14:00 +31°C° 0.1 mm 0 mps 699 mmHg 61%
15:00 +33°C° 0.1 mm 1 mps 699 mmHg 64%
16:00 +33°C° 0.1 mm 1 mps 699 mmHg 66%
17:00 +31°C° 0.2 mm 1 mps 699 mmHg 72%
18:00 +30°C° 0.2 mm 1 mps 699 mmHg 77%
19:00 +28°C° 0.2 mm 1 mps 699 mmHg 83%
20:00 +28°C° 0 mm 1 mps 699 mmHg 84%
21:00 +27°C° 0 mm 1 mps 700 mmHg 85%
22:00 +27°C° 0 mm 1 mps 700 mmHg 86%
23:00 +27°C° 0 mm 1 mps 700 mmHg 87%

9 Agosto, Lunes

Tiempo Temperatura Precipitaciones Viento Presión Humedad
00:00 +27°C° 0 mm 1 mps 700 mmHg 87%
01:00 +25°C° 0 mm 0 mps 700 mmHg 87%
02:00 +24°C° 0 mm 0 mps 699 mmHg 88%
03:00 +24°C° 0 mm 0 mps 699 mmHg 89%
04:00 +24°C° 0 mm 0 mps 699 mmHg 90%
05:00 +25°C° 0 mm 0 mps 700 mmHg 88%
06:00 +25°C° 0 mm 0 mps 700 mmHg 87%
07:00 +26°C° 0 mm 0 mps 700 mmHg 86%
08:00 +29°C° 0 mm 1 mps 700 mmHg 78%
09:00 +31°C° 0 mm 1 mps 701 mmHg 71%
10:00 +32°C° 0 mm 1 mps 701 mmHg 64%
11:00 +33°C° 0.2 mm 1 mps 700 mmHg 62%
12:00 +34°C° 0.2 mm 1 mps 700 mmHg 60%
13:00 +34°C° 0.2 mm 1 mps 699 mmHg 57%
14:00 +34°C° 0.5 mm 1 mps 699 mmHg 61%
15:00 +33°C° 0.5 mm 1 mps 698 mmHg 64%
16:00 +33°C° 0.5 mm 1 mps 698 mmHg 67%
17:00 +31°C° 0.7 mm 1 mps 698 mmHg 73%
18:00 +29°C° 0.7 mm 1 mps 699 mmHg 80%
19:00 +28°C° 0.7 mm 1 mps 699 mmHg 86%
20:00 +27°C° 0.2 mm 1 mps 699 mmHg 87%
21:00 +27°C° 0.2 mm 1 mps 699 mmHg 89%
22:00 +27°C° 0.2 mm 1 mps 700 mmHg 90%
23:00 +26°C° 0.2 mm 1 mps 700 mmHg 91%
Mostrar más

Necesitamos Su Consentimiento

Meteoprog y nuestros Proveedores de Servicios pueden almacenar y acceder a sus datos personales como cookies, identificadores de dispositivo u otras tecnologías similares de su dispositivo y procesar dichos datos para personalizar contenido y anuncios, además de ofrecer funciones de redes sociales y analizar el tráfico.

  • Almacenar y/o acceder a información en su dispositivo

    Se puede almacenar o acceder a cookies, identificadores de dispositivo u otra información de su dispositivo para los fines anteriormente indicados.

  • Anuncios y contenido personalizados, medición de anuncios y contenido, percepciones del público, y desarrollo de productos

    Los anuncios y el contenido pueden personalizarse en base a su perfil. Se pueden añadir más datos para personalizar mejor los anuncios y contenidos. Se puede medir el rendimiento de los anuncios y contenidos. Se puede obtener la percepción sobre el público que ha visto los anuncios y contenidos. Dichos datos pueden usarse para desarrollar o mejorar la experiencia del usuario, sistemas y software.

Al hacer clic en ‘Estoy De Acuerdo’ usted permitirá el uso de las cookies, identificadores de dispositivo, balizas web u otras tecnologías similares indicadas. Su configuración puede cambiarse desde el navegador de su dispositivo.

Para ciertos fines, los intereses legítimos pueden ser considerados por encima del consentimiento. Puede leer más sobre ello en nuestra Política de Privacidad y Cookies.